Meteo pe oră la Bolshoe Honovo

Astăzi, 6 Mai, Joi

Timp Temperatura Precipitaţii Vânt Presiune Umiditate
00:00 +10°C° 0 mm 4 m/s 735 mmHg 81%
01:00 +9°C° 0 mm 5 m/s 735 mmHg 84%
02:00 +8°C° 0 mm 5 m/s 734 mmHg 87%
03:00 +8°C° 0.1 mm 5 m/s 734 mmHg 89%
04:00 +8°C° 0.1 mm 5 m/s 734 mmHg 91%
05:00 +9°C° 0.1 mm 6 m/s 733 mmHg 93%
06:00 +7°C° 1.6 mm 6 m/s 734 mmHg 93%
07:00 +5°C° 1.6 mm 6 m/s 734 mmHg 93%
08:00 +4°C° 1.6 mm 6 m/s 735 mmHg 93%
09:00 +5°C° 0.5 mm 6 m/s 735 mmHg 89%
10:00 +7°C° 0.5 mm 6 m/s 736 mmHg 85%
11:00 +7°C° 0.5 mm 5 m/s 736 mmHg 81%
12:00 +8°C° 0.3 mm 6 m/s 737 mmHg 75%
13:00 +9°C° 0.3 mm 7 m/s 737 mmHg 70%
14:00 +10°C° 0.3 mm 8 m/s 738 mmHg 64%
15:00 +9°C° 0.2 mm 8 m/s 738 mmHg 65%
16:00 +9°C° 0.2 mm 7 m/s 739 mmHg 66%
17:00 +9°C° 0.2 mm 6 m/s 739 mmHg 67%
18:00 +8°C° 0 mm 6 m/s 740 mmHg 66%
19:00 +6°C° 0 mm 5 m/s 740 mmHg 66%
20:00 +5°C° 0 mm 5 m/s 741 mmHg 65%
21:00 +4°C° 0 mm 4 m/s 741 mmHg 69%
22:00 +4°C° 0 mm 4 m/s 741 mmHg 73%
23:00 +3°C° 0 mm 3 m/s 741 mmHg 77%

Mâine, 7 Mai, Vineri

Timp Temperatura Precipitaţii Vânt Presiune Umiditate
00:00 +3°C° 0 mm 3 m/s 741 mmHg 77%
01:00 +2°C° 0 mm 3 m/s 741 mmHg 77%
02:00 +2°C° 0 mm 3 m/s 741 mmHg 77%
03:00 +3°C° 0.1 mm 4 m/s 741 mmHg 80%
04:00 +3°C° 0.1 mm 4 m/s 741 mmHg 82%
05:00 +4°C° 0.1 mm 4 m/s 741 mmHg 84%
06:00 +5°C° 0.1 mm 5 m/s 741 mmHg 82%
07:00 +6°C° 0.1 mm 5 m/s 741 mmHg 79%
08:00 +8°C° 0.1 mm 5 m/s 741 mmHg 77%
09:00 +9°C° 0.1 mm 5 m/s 741 mmHg 71%
10:00 +10°C° 0.1 mm 5 m/s 741 mmHg 64%
11:00 +11°C° 0.1 mm 6 m/s 741 mmHg 58%
12:00 +13°C° 0.1 mm 5 m/s 741 mmHg 57%
13:00 +13°C° 0.1 mm 5 m/s 740 mmHg 57%
14:00 +13°C° 0.1 mm 5 m/s 740 mmHg 56%
15:00 +12°C° 0.8 mm 5 m/s 740 mmHg 68%
16:00 +9°C° 0.8 mm 5 m/s 739 mmHg 80%
17:00 +8°C° 0.8 mm 5 m/s 739 mmHg 92%
18:00 +8°C° 0.5 mm 5 m/s 739 mmHg 93%
19:00 +8°C° 0.5 mm 5 m/s 738 mmHg 94%
20:00 +8°C° 0.5 mm 5 m/s 738 mmHg 95%
21:00 +8°C° 0 mm 4 m/s 737 mmHg 95%
22:00 +8°C° 0 mm 4 m/s 737 mmHg 95%
23:00 +9°C° 0 mm 3 m/s 737 mmHg 96%

Poimâine, 8 Mai, Sâmbătă

Timp Temperatura Precipitaţii Vânt Presiune Umiditate
00:00 +8°C° 0 mm 3 m/s 737 mmHg 96%
01:00 +8°C° 0 mm 3 m/s 736 mmHg 96%
02:00 +7°C° 0 mm 3 m/s 736 mmHg 96%
03:00 +6°C° 0 mm 4 m/s 736 mmHg 96%
04:00 +6°C° 0 mm 4 m/s 736 mmHg 95%
05:00 +6°C° 0 mm 5 m/s 736 mmHg 94%
06:00 +5°C° 0.1 mm 5 m/s 736 mmHg 93%
07:00 +3°C° 0.1 mm 6 m/s 736 mmHg 91%
08:00 +3°C° 0.1 mm 6 m/s 736 mmHg 89%
09:00 +2°C° 0.1 mm 7 m/s 737 mmHg 91%
10:00 +2°C° 0.1 mm 7 m/s 737 mmHg 93%
11:00 0°C° 0.1 mm 7 m/s 737 mmHg 96%
12:00 +1°C° 0.2 mm 8 m/s 738 mmHg 93%
13:00 +1°C° 0.2 mm 8 m/s 739 mmHg 91%
14:00 +2°C° 0.2 mm 8 m/s 740 mmHg 88%
15:00 +4°C° 0.1 mm 8 m/s 741 mmHg 82%
16:00 +5°C° 0.1 mm 7 m/s 741 mmHg 75%
17:00 +6°C° 0.1 mm 7 m/s 742 mmHg 68%
18:00 +5°C° 0 mm 6 m/s 742 mmHg 71%
19:00 +4°C° 0 mm 6 m/s 743 mmHg 74%
20:00 +3°C° 0 mm 5 m/s 743 mmHg 76%
21:00 +2°C° 0 mm 5 m/s 744 mmHg 81%
22:00 +2°C° 0 mm 5 m/s 744 mmHg 85%
23:00 +2°C° 0 mm 5 m/s 745 mmHg 90%

9 Mai, Duminică

Timp Temperatura Precipitaţii Vânt Presiune Umiditate
00:00 +1°C° 0 mm 4 m/s 745 mmHg 92%
01:00 0°C° 0 mm 4 m/s 746 mmHg 93%
02:00 +1°C° 0 mm 3 m/s 746 mmHg 95%
03:00 0°C° 0 mm 3 m/s 747 mmHg 94%
04:00 0°C° 0 mm 3 m/s 748 mmHg 93%
05:00 -1°C° 0 mm 3 m/s 748 mmHg 92%
06:00 +2°C° 0 mm 3 m/s 749 mmHg 81%
07:00 +4°C° 0 mm 3 m/s 749 mmHg 70%
08:00 +6°C° 0 mm 4 m/s 750 mmHg 58%
09:00 +8°C° 0 mm 3 m/s 750 mmHg 53%
10:00 +9°C° 0 mm 3 m/s 751 mmHg 47%
11:00 +10°C° 0 mm 3 m/s 751 mmHg 42%
12:00 +11°C° 0 mm 3 m/s 751 mmHg 41%
13:00 +12°C° 0 mm 3 m/s 751 mmHg 40%
14:00 +13°C° 0 mm 2 m/s 751 mmHg 39%
15:00 +13°C° 0 mm 2 m/s 751 mmHg 40%
16:00 +13°C° 0 mm 2 m/s 751 mmHg 42%
17:00 +14°C° 0 mm 2 m/s 751 mmHg 44%
18:00 +12°C° 0 mm 2 m/s 752 mmHg 51%
19:00 +9°C° 0 mm 2 m/s 752 mmHg 58%
20:00 +7°C° 0 mm 2 m/s 752 mmHg 65%
21:00 +7°C° 0 mm 2 m/s 753 mmHg 67%
22:00 +6°C° 0 mm 2 m/s 753 mmHg 70%
23:00 +5°C° 0 mm 2 m/s 753 mmHg 73%

10 Mai, Luni

Timp Temperatura Precipitaţii Vânt Presiune Umiditate
00:00 +5°C° 0 mm 2 m/s 753 mmHg 73%
01:00 +3°C° 0 mm 3 m/s 754 mmHg 74%
02:00 +3°C° 0 mm 3 m/s 754 mmHg 75%
03:00 +3°C° 0 mm 3 m/s 754 mmHg 76%
04:00 +3°C° 0 mm 3 m/s 754 mmHg 77%
05:00 +3°C° 0 mm 3 m/s 754 mmHg 78%
06:00 +5°C° 0 mm 3 m/s 754 mmHg 73%
07:00 +8°C° 0 mm 3 m/s 755 mmHg 67%
08:00 +10°C° 0 mm 3 m/s 755 mmHg 62%
09:00 +12°C° 0 mm 3 m/s 755 mmHg 58%
10:00 +13°C° 0 mm 4 m/s 755 mmHg 54%
11:00 +15°C° 0 mm 4 m/s 755 mmHg 49%
12:00 +17°C° 0 mm 4 m/s 755 mmHg 48%
13:00 +17°C° 0 mm 4 m/s 754 mmHg 47%
14:00 +18°C° 0 mm 4 m/s 754 mmHg 46%
15:00 +17°C° 0 mm 4 m/s 754 mmHg 49%
16:00 +17°C° 0 mm 3 m/s 754 mmHg 53%
17:00 +17°C° 0 mm 3 m/s 754 mmHg 56%
18:00 +14°C° 0 mm 3 m/s 754 mmHg 63%
19:00 +12°C° 0 mm 3 m/s 754 mmHg 69%
20:00 +10°C° 0 mm 3 m/s 753 mmHg 75%
21:00 +9°C° 0 mm 3 m/s 754 mmHg 76%
22:00 +9°C° 0 mm 3 m/s 754 mmHg 78%
23:00 +8°C° 0 mm 3 m/s 754 mmHg 79%

11 Mai, Marţi

Timp Temperatura Precipitaţii Vânt Presiune Umiditate
00:00 +8°C° 0 mm 3 m/s 754 mmHg 79%
01:00 +7°C° 0 mm 2 m/s 754 mmHg 79%
02:00 +7°C° 0 mm 2 m/s 754 mmHg 79%
03:00 +6°C° 0 mm 2 m/s 754 mmHg 79%
04:00 +6°C° 0 mm 2 m/s 754 mmHg 80%
05:00 +5°C° 0 mm 3 m/s 754 mmHg 80%
06:00 +8°C° 0 mm 3 m/s 754 mmHg 74%
07:00 +10°C° 0 mm 3 m/s 754 mmHg 68%
08:00 +12°C° 0 mm 4 m/s 753 mmHg 62%
09:00 +14°C° 0 mm 4 m/s 753 mmHg 56%
10:00 +16°C° 0 mm 3 m/s 753 mmHg 51%
11:00 +17°C° 0 mm 3 m/s 753 mmHg 46%
12:00 +18°C° 0 mm 3 m/s 753 mmHg 48%
13:00 +19°C° 0 mm 3 m/s 752 mmHg 50%
14:00 +20°C° 0 mm 3 m/s 752 mmHg 52%
15:00 +20°C° 0 mm 3 m/s 752 mmHg 55%
16:00 +20°C° 0 mm 3 m/s 752 mmHg 59%
17:00 +20°C° 0 mm 3 m/s 751 mmHg 63%
18:00 +18°C° 0 mm 3 m/s 751 mmHg 70%
19:00 +17°C° 0 mm 3 m/s 751 mmHg 78%
20:00 +14°C° 0 mm 3 m/s 751 mmHg 85%
21:00 +13°C° 0 mm 3 m/s 751 mmHg 88%
22:00 +13°C° 0 mm 3 m/s 751 mmHg 91%
23:00 +12°C° 0 mm 3 m/s 751 mmHg 93%
Arată mai mult

Formular de consimțământ

Meteoprog și furnizorii noștri de servicii pot stoca și accesa date personale, precum cookies, identificatori de dispozitiv sau alte tehnologii similare pe dispozitivul dumneavoastră și procesa astfel de date pentru a personaliza conținutul și reclamele, dar și pentru a oferi caracteristici de social media și pentru a analiza traficul.

  • Stocarea și/sau accesarea informațiilor pe dispozitivul dumneavoastră

    Cookies, identificatori de dispozitiv sau alte informații pot fi stocate sau accesate pe dispozitiv în scopurile indicate mai sus.

  • Reclame și conținut personalizat, evaluarea reclamelor și a conținutului, informații despre audiențe și dezvoltarea produselor

    Reclamele și conținutul pot fi personalizate pe baza unui profil. Pot fi adăugate date suplimentare pentru a personaliza mai bine reclamele și conținutul. Performanța reclamelor și conținutului poate fi măsurată. Pot fi obținute informații despre utilizatorii care au văzut reclamele și conținutul. Aceste date pot fi utilizate pentru a dezvolta sau îmbunătăți experiența utilizatorilor, sistemele și software-ul.

Dând clic pe ‘Sunt de acord’, permiteți utilizarea cookie-urilor menționate, a identificatorilor de dispozitiv, balizelor web sau altor tehnologii similare. Setările pot fi modificate din browser-ul dispozitivului dumneavoastră.

În anumite scopuri, interesele legitime pot prima asupra consimțământului. Puteți citi mai multe informații în acest sens în Politica privind Confidențialitatea Datelor și Cookie.